{"data":{"norad_id":39034,"epoch":"2026-05-25T03:59:38.323392Z","epoch_age_seconds":57851,"freshness":"FRESH","line1":"1 39034U 12075A   26145.16641578  .00000097  00000+0  00000+0 0  9994","line2":"2 39034   0.0675 357.7179 0003759  71.8624 285.8522  1.00273807 48923","mean_motion":1.00273807,"eccentricity":0.0003759,"inclination_deg":0.0675,"raan_deg":357.7179,"arg_perigee_deg":71.8624,"mean_anomaly_deg":285.8522,"bstar":0,"rev_number":4892,"period_min":1436.0679454406,"perigee_km":35770.178621042,"apogee_km":35801.877640388,"semimajor_km":42164.165130715,"source":"CELESTRAK","updated_at":"2026-05-25T13:38:13.940144Z"}}